Temperature
17 17 16 16 16 16 16 16 17 17 17 16 16 15 15 15 15 15 14 15 15 15 15 15 15 14 14 14 14 14 14 14 14 14 14 13 13 13
17 17 17 16 16 16 16 16 16 16 17 16 15 15 15 15 15 14 14 15 15 15 15 14 14 14 14 14 14 14 14 14 13 13 13 13 13 13
17 17 17 17 16 16 16 16 16 16 16 16 15 15 14 14 14 14 14 14 14 14 14 14 14 14 14 14 13 13 13 13 13 13 13 13 13 13
17 17 17 16 16 16 16 16 16 16 15 15 15 15 14 14 14 14 14 14 14 14 14 13 13 13 13 13 13 13 13 13 13 12 12 12 12 12
17 17 17 16 16 16 16 16 16 15 15 15 15 14 14 14 14 14 13 13 13 13 13 13 13 13 13 13 13 12 12 12 12 12 12 12 12 12
16 17 17 16 16 16 16 16 15 15 15 15 15 15 14 14 14 14 13 13 13 13 13 13 13 13 13 12 12 12 12 12 12 12 12 12 12 12
16 16 16 16 16 16 16 15 15 15 15 15 15 15 14 14 14 13 13 13 13 13 13 13 13 13 12 12 12 12 12 12 12 12 12 12 11 11
16 16 16 16 16 16 16 15 15 15 15 15 15 14 14 14 13 13 13 13 13 13 12 12 12 12 12 12 12 12 12 11 11 11 11 11 11 11
15 15 15 16 16 15 15 15 15 15 15 14 14 14 14 13 13 13 13 13 12 12 12 12 12 12 12 12 12 12 11 11 11 11 11 11 11 11
15 15 15 15 15 15 15 14 14 14 14 14 14 14 13 13 13 13 13 12 12 12 12 12 12 12 11 11 11 11 11 11 11 11 11 11 10 10
15 15 15 15 15 15 14 14 14 14 14 14 14 13 13 13 13 12 12 12 12 12 12 12 12 11 11 11 11 11 11 11 11 11 10 10 10 10
14 14 14 14 14 14 14 13 13 13 13 13 13 13 13 13 13 12 12 12 12 12 12 11 11 11 11 11 11 11 11 10 10 10 10 10 10 9
14 14 14 14 14 14 14 13 13 13 13 13 13 13 12 12 12 12 12 12 12 12 11 11 11 11 11 11 10 10 10 10 10 10 10 9 9 9
14 14 13 14 14 13 13 13 13 13 12 12 12 12 12 12 12 12 12 11 11 11 11 11 11 10 11 11 10 10 10 10 9 9 9 9 9 9
13 13 13 13 13 13 13 12 12 12 12 12 12 12 12 12 11 11 11 11 11 11 10 10 10 10 10 10 10 10 10 9 9 9 9 9 9 9
13 13 13 13 12 12 12 12 12 12 12 12 11 11 11 11 11 11 11 11 11 11 10 10 10 10 10 10 10 10 10 9 9 9 9 8 8 8
12 12 12 12 11 11 11 11 11 11 11 11 11 11 11 11 11 10 10 10 10 10 10 10 9 9 9 9 9 10 9 9 9 9 8 8 8 8
12 11 11 11 11 11 11 11 10 11 11 11 11 11 10 10 10 10 10 10 10 10 10 10 9 9 9 9 9 9 9 9 9 8 8 8 8 8
11 11 11 11 11 10 10 10 10 10 10 10 10 10 10 10 10 10 10 10 10 10 9 9 9 9 9 9 9 9 8 8 8 8 8 8 8 8
10 10 10 10 10 10 10 10 10 9 9 9 9 9 9 9 9 9 9 9 9 9 9 9 9 9 9 9 9 8 8 8 8 8 8 8 8 8
10 10 10 10 10 9 9 9 9 9 9 9 9 9 9 9 9 9 9 9 9 9 9 9 8 8 8 8 8 8 8 8 8 8 8 8 8 8
10 10 9 9 9 9 9 9 9 8 8 8 8 8 8 8 8 8 9 9 9 9 9 9 8 8 8 8 8 8 8 8 7 7 7 7 7 7
9 9 9 9 9 8 8 8 8 8 8 8 8 8 8 8 8 8 8 8 8 8 8 8 8 8 8 8 8 8 8 8 8 7 7 7 7 7
Wind_Speed
6 7 6 5 5 5 5 5 5 5 3 3 3 2 2 2 2 3 2 3 4 4 3 3 3 3 3 3 3 3 3 3 2 3 4 3 4 3
5 6 6 6 5 5 5 5 6 6 5 2 3 2 2 2 3 3 3 5 5 5 4 4 4 4 4 4 3 3 3 3 2 2 2 2 2 2
7 7 7 6 5 5 5 5 5 5 6 4 3 3 3 4 2 3 4 4 4 5 5 4 4 4 4 4 4 4 4 3 3 3 3 2 1 1
8 8 8 6 7 6 5 6 5 5 6 6 4 4 5 5 4 4 3 3 3 5 6 5 5 5 5 5 4 4 4 4 4 4 3 2 2 1
8 8 8 7 7 6 6 6 6 6 6 6 6 4 4 4 4 4 4 3 4 6 7 7 6 6 6 6 5 5 5 5 5 5 4 3 2 2
7 8 8 8 8 7 6 7 6 6 6 6 6 5 4 4 5 5 4 4 4 4 4 5 7 8 8 7 6 6 6 5 5 5 5 4 4 3
7 7 7 6 4 5 5 6 6 6 6 7 7 6 5 4 5 5 5 4 4 4 3 4 5 5 6 8 8 7 7 7 6 6 5 5 5 5
7 6 6 6 6 5 3 3 4 6 7 7 7 6 6 6 5 5 5 4 4 3 5 4 4 4 4 5 6 8 8 8 7 7 6 6 5 5
7 7 6 6 7 7 7 8 7 6 7 8 7 7 6 5 6 6 5 6 5 3 4 5 4 4 4 4 8 10 10 9 9 8 8 8 7 6
7 7 7 7 6 6 7 7 8 8 9 9 7 7 5 4 6 7 7 7 6 4 5 5 4 4 4 5 9 10 10 10 9 9 9 9 8 8
7 6 6 7 4 5 7 8 8 7 7 6 4 4 2 3 4 6 6 6 6 5 5 5 4 4 4 4 7 12 11 10 9 9 9 9 8 8
5 6 6 6 5 6 8 8 9 7 6 6 7 8 7 6 7 7 6 6 5 4 4 4 4 3 3 4 4 6 8 10 11 10 10 9 8 7
5 5 4 6 7 7 8 7 6 5 6 6 6 6 6 5 6 6 5 5 5 4 3 4 4 4 4 3 4 4 5 6 8 9 11 11 11 9
6 5 3 6 6 6 6 4 4 6 6 6 6 6 6 5 5 5 6 5 5 4 2 4 4 4 5 5 4 4 5 5 6 6 7 10 12 13
4 2 4 6 6 6 6 7 7 7 6 6 6 6 5 4 4 5 6 7 6 5 4 5 6 5 6 6 5 4 5 5 6 6 5 6 7 8
4 3 6 7 7 5 6 6 6 5 6 6 5 4 4 4 5 5 5 5 6 5 5 6 7 6 6 6 6 5 5 5 5 5 5 6 7 8
3 4 4 4 5 5 4 4 5 5 6 6 6 5 5 5 5 5 5 5 6 5 5 5 6 6 6 6 6 6 5 5 5 5 6 6 6 7
4 5 4 4 5 5 4 4 4 4 4 5 5 5 5 5 5 4 5 5 5 5 5 5 5 5 5 6 5 6 5 5 4 5 7 7 7 6
5 4 4 4 4 4 4 4 4 4 3 4 4 4 5 5 5 5 5 5 5 5 4 4 4 5 6 7 5 7 5 5 4 5 6 7 7 6
4 3 4 4 4 4 4 4 4 4 4 4 4 4 4 5 5 5 5 6 6 6 5 5 5 5 7 6 5 5 9 6 5 6 6 6 6 4
4 4 4 4 4 3 3 3 3 4 4 4 4 4 4 5 5 5 5 6 6 6 6 6 5 6 6 6 6 5 5 9 7 6 6 6 6 6
3 3 3 3 3 3 3 3 4 4 5 4 4 4 4 5 5 6 5 5 6 6 6 5 4 5 6 7 7 6 5 5 8 10 9 7 5 6
2 2 2 3 3 3 3 3 4 4 4 4 4 4 4 4 5 5 5 5 5 5 5 5 4 5 6 7 7 6 6 6 5 6 7 10 11 10
Wind_Direction
223 219 226 229 233 236 236 238 246 251 239 213 220 198 203 205 176 213 208 170 190 196 203 201 198 198 195 195 197 202 210 219 238 242 242 243 240 249
227 229 228 228 228 231 235 235 241 255 263 232 217 211 220 224 186 219 212 166 179 191 198 197 195 197 194 191 189 189 189 193 199 201 203 219 234 241
223 221 223 230 229 226 231 233 234 234 243 249 227 206 213 241 213 224 218 208 182 180 192 195 198 199 196 190 186 186 185 187 187 185 178 174 183 204
225 223 224 220 221 230 230 229 229 228 233 243 238 218 219 225 223 230 227 216 201 167 179 192 202 203 198 193 189 190 194 197 194 189 183 182 183 183
229 225 225 224 224 222 224 224 225 224 227 236 242 231 230 215 215 221 226 234 225 180 180 188 198 201 200 197 196 194 195 195 194 193 189 188 190 194
235 231 227 224 225 223 222 224 226 227 224 232 238 232 224 212 219 223 222 221 233 212 189 194 192 194 196 195 198 196 196 194 193 192 191 191 190 193
234 231 228 220 226 231 231 221 221 228 228 230 235 235 227 216 226 230 235 228 227 230 222 209 198 200 196 195 199 200 199 197 194 191 192 196 199 199
235 231 219 206 198 198 222 246 248 236 238 238 239 239 235 229 232 239 238 237 237 217 231 228 219 218 211 204 186 191 199 200 199 199 197 196 200 199
235 235 233 217 208 215 207 210 225 238 249 253 250 250 242 233 237 237 235 244 250 223 227 232 218 226 221 199 174 187 199 205 208 209 210 209 206 206
231 229 230 227 219 216 220 222 226 225 228 235 243 249 248 241 230 238 242 236 236 213 217 237 223 230 226 200 177 184 193 202 210 214 214 215 215 215
230 228 227 227 203 219 225 228 231 231 217 215 239 253 272 249 249 243 234 235 235 215 212 239 236 237 231 220 187 181 189 196 200 207 212 216 219 219
223 223 222 222 196 208 225 230 232 230 224 212 214 222 226 214 211 230 239 242 241 227 196 225 232 229 234 218 202 193 198 197 198 204 208 213 218 226
228 229 215 173 192 206 231 234 233 237 229 227 223 221 220 217 217 220 237 250 253 246 201 212 234 228 238 238 222 215 215 214 209 212 209 207 211 225
234 233 197 159 184 205 221 219 217 232 230 227 228 226 223 221 217 218 225 237 252 259 237 223 240 233 241 247 234 217 218 221 223 222 217 203 212 220
233 198 163 172 189 203 203 209 218 228 230 231 233 231 232 226 219 212 212 217 226 236 226 230 242 237 242 249 246 233 227 225 224 226 224 218 220 220
219 176 171 191 212 213 202 213 227 233 233 236 241 235 227 219 222 223 222 216 222 218 213 222 234 237 241 244 248 241 233 227 222 228 234 236 229 225
205 213 211 203 208 213 219 220 225 224 230 234 232 229 228 228 225 223 227 227 228 227 214 209 215 224 240 253 251 248 244 242 235 224 234 242 237 230
203 217 217 214 219 222 226 223 227 234 238 241 238 231 228 229 226 225 228 229 230 231 225 213 213 220 229 233 239 250 251 249 246 231 238 246 246 237
208 223 226 225 228 230 231 232 229 229 233 237 239 238 237 232 226 223 223 229 233 235 230 225 227 234 242 244 221 217 244 253 252 241 242 249 253 247
219 225 232 235 234 235 235 236 236 229 228 235 235 240 241 237 232 232 230 232 232 232 231 226 229 236 245 258 260 228 212 236 249 251 253 255 254 244
221 225 232 239 239 235 241 240 240 232 228 230 229 236 239 234 232 234 232 225 238 238 237 235 226 229 245 252 252 242 222 210 234 256 260 260 261 255
220 224 232 244 249 242 241 244 242 237 227 224 228 229 233 235 231 232 238 235 234 240 246 245 215 219 233 241 247 250 243 221 219 229 240 248 265 265
232 233 233 233 242 240 243 246 249 246 235 228 229 233 234 232 232 230 231 240 242 242 247 247 242 233 236 240 247 252 249 243 238 230 231 220 230 246
Height
1540 1540 1541 1542 1543 1544 1544 1545 1546 1545 1545 1545 1545 1545 1544 1544 1543 1542 1542 1541 1541 1541 1540 1540 1540 1540 1539 1539 1539 1539 1539 1538 1538 1538 1538 1538 1538 1538
1536 1537 1537 1539 1540 1540 1541 1541 1542 1543 1542 1542 1543 1542 1541 1542 1540 1540 1539 1539 1538 1538 1537 1537 1537 1536 1536 1536 1536 1536 1536 1535 1535 1535 1535 1535 1535 1535
1533 1534 1534 1535 1536 1537 1538 1538 1538 1539 1539 1540 1540 1539 1538 1538 1538 1537 1537 1537 1536 1535 1535 1534 1534 1533 1533 1533 1533 1532 1532 1532 1532 1532 1532 1532 1532 1531
1529 1530 1530 1531 1532 1533 1534 1535 1535 1535 1536 1536 1537 1536 1535 1535 1534 1534 1535 1534 1533 1532 1531 1531 1531 1530 1530 1530 1529 1529 1529 1529 1529 1529 1529 1529 1529 1528
1526 1526 1526 1527 1528 1529 1530 1531 1531 1532 1532 1533 1533 1533 1533 1532 1531 1531 1531 1531 1530 1529 1528 1528 1527 1527 1527 1527 1527 1526 1526 1526 1526 1526 1526 1526 1526 1525
1521 1522 1522 1523 1524 1525 1526 1526 1527 1528 1528 1529 1529 1529 1529 1529 1528 1528 1528 1527 1527 1527 1526 1525 1524 1524 1524 1524 1524 1523 1523 1523 1523 1523 1523 1523 1523 1522
1518 1518 1518 1519 1520 1521 1522 1522 1523 1524 1524 1525 1525 1525 1526 1525 1525 1525 1525 1524 1523 1523 1522 1522 1522 1521 1521 1521 1521 1520 1520 1520 1519 1519 1519 1519 1519 1520
1514 1515 1515 1515 1516 1517 1517 1518 1519 1520 1520 1520 1521 1521 1521 1521 1521 1521 1521 1520 1520 1520 1519 1519 1519 1519 1518 1518 1517 1517 1517 1517 1516 1516 1516 1516 1516 1516
1510 1511 1512 1512 1512 1513 1513 1513 1514 1515 1516 1516 1517 1516 1516 1516 1516 1516 1516 1516 1516 1516 1516 1515 1516 1515 1515 1514 1514 1514 1514 1514 1514 1513 1513 1513 1513 1514
1506 1506 1507 1507 1508 1508 1509 1509 1510 1510 1511 1511 1511 1512 1512 1512 1512 1512 1513 1513 1512 1512 1512 1512 1512 1512 1512 1511 1510 1510 1510 1510 1510 1510 1510 1510 1510 1511
1502 1502 1503 1503 1503 1504 1505 1505 1506 1506 1506 1506 1507 1507 1507 1507 1508 1508 1509 1509 1509 1509 1508 1509 1509 1509 1508 1508 1507 1507 1507 1507 1506 1506 1507 1507 1507 1507
1497 1498 1498 1498 1499 1499 1500 1501 1502 1502 1503 1502 1502 1502 1503 1503 1503 1503 1504 1505 1505 1505 1504 1505 1505 1505 1505 1505 1504 1504 1503 1503 1503 1503 1503 1504 1504 1504
1493 1493 1494 1494 1494 1495 1496 1496 1496 1497 1498 1498 1499 1498 1498 1499 1499 1499 1499 1500 1501 1501 1501 1501 1501 1501 1502 1502 1501 1501 1500 1500 1500 1500 1500 1500 1501 1501
1488 1489 1489 1489 1490 1490 1491 1491 1492 1493 1494 1494 1495 1495 1494 1495 1495 1495 1495 1495 1496 1496 1496 1496 1497 1497 1498 1498 1498 1497 1497 1497 1497 1497 1497 1497 1497 1497
1484 1484 1484 1485 1485 1486 1487 1487 1488 1489 1489 1490 1490 1490 1490 1491 1491 1491 1490 1491 1491 1492 1492 1492 1493 1493 1494 1494 1494 1494 1494 1494 1494 1494 1494 1493 1493 1493
1479 1479 1480 1480 1481 1482 1482 1483 1484 1484 1484 1485 1485 1485 1486 1486 1487 1487 1488 1488 1488 1488 1488 1488 1488 1489 1490 1490 1490 1490 1491 1490 1490 1490 1490 1490 1490 1490
1474 1475 1475 1476 1477 1478 1478 1479 1479 1480 1480 1480 1481 1481 1482 1482 1482 1483 1483 1484 1484 1484 1484 1484 1485 1485 1485 1486 1487 1487 1487 1487 1487 1486 1486 1486 1486 1486
1471 1471 1472 1473 1473 1474 1474 1475 1475 1475 1475 1476 1476 1477 1477 1478 1479 1479 1479 1480 1480 1480 1481 1481 1481 1482 1482 1482 1482 1482 1483 1483 1483 1482 1482 1482 1482 1482
1467 1468 1468 1469 1469 1470 1470 1471 1471 1471 1471 1471 1472 1472 1473 1474 1474 1475 1475 1476 1476 1477 1477 1477 1477 1477 1478 1477 1477 1477 1478 1478 1478 1478 1478 1478 1478 1478
1463 1464 1465 1465 1466 1466 1466 1467 1467 1467 1467 1467 1468 1468 1469 1469 1470 1470 1471 1471 1472 1473 1473 1473 1473 1473 1473 1474 1474 1473 1473 1474 1474 1474 1474 1474 1474 1473
1460 1460 1461 1462 1462 1462 1462 1462 1462 1462 1462 1463 1463 1464 1464 1465 1465 1466 1467 1467 1468 1468 1469 1469 1469 1469 1469 1470 1470 1469 1469 1469 1469 1469 1469 1469 1469 1469
1457 1457 1458 1458 1459 1459 1459 1459 1458 1458 1458 1458 1459 1460 1460 1460 1461 1462 1463 1463 1464 1464 1465 1465 1465 1466 1466 1466 1465 1465 1465 1465 1464 1464 1464 1464 1464 1463
1455 1455 1455 1455 1455 1455 1455 1455 1455 1454 1454 1455 1455 1456 1456 1457 1457 1458 1459 1459 1460 1460 1461 1461 1462 1462 1461 1462 1462 1461 1461 1461 1460 1460 1460 1459 1459 1459